Regional Weather Roundup
Issued by NWS Albany, NY

Home | Current Version | Previous Version | Graphics & Text | Print | Product List | Glossary Off
Versions: 1 2 3 4 5 6 7 8 9 10 11 12 13 14 15 16 17 18 19 20 21 22 23 24 25 26 27 28 29 30 31 32 33 34 35 36 37 38 39 40 41 42 43 44 45 46 47 48 49 50

000
ASUS41 KALY 011210
RWRALY

NEW YORK STATE HOURLY WEATHER ROUNDUP
NATIONAL WEATHER SERVICE ALBANY NY
800 AM EDT MON JUN 01 2015

NOTE: "FAIR" INDICATES FEW OR NO CLOUDS BELOW 12,000 FEET WITH NO
SIGNIFICANT WEATHER AND/OR NO OBSTRUCTIONS TO VISIBILITY.

NYZ032-033-038>043-046>054-057>066-NYZ062>081-011300-
EAST


CITY           SKY/WX    TMP DP  RH WIND       PRES   REMARKS
ALBANY         DRIZZLE   52  49  89 CALM      30.17R FOG
GLENS FALLS    LGT RAIN  49  46  90 N10       30.20R FOG
POUGHKEEPSIE   CLOUDY    53  50  89 E6        30.15S
NEWBURGH       FOG       52  52 100 E8        30.15S VSB 1
MONTGOMERY     LGT RAIN  54  52  93 NE6       30.14R FOG
WHITE PLAINS   CLOUDY    52  51  97 E8        30.14R FOG
ISLIP          LGT RAIN  56  55  97 E6        30.12R
NEW YORK CITY  CLOUDY    56  53  90 NE16      30.13R FOG
CENTRAL PARK   CLOUDY    56  54  93 NE10G17   30.16R FOG
$$

NYZ005>009-017-018-044>046-055-056-011300-
CENTRAL


CITY           SKY/WX    TMP DP  RH WIND       PRES   REMARKS
FULTON         LGT RAIN  52  49  89 NE6       30.11R FOG
SYRACUSE       RAIN      51  51 100 E9        30.10R FOG
ROME           CLOUDY    51  49  92 E5        30.14R
ELMIRA         CLOUDY    52  50  93 CALM      30.08R FOG
BINGHAMTON     FOG       54  54 100 NW3       30.06S VSB 1/2
MONTICELLO     CLOUDY    50  50 100 E8        30.13R
$$

NYZ026>034-041>043-011300-
NORTH


CITY           SKY/WX    TMP DP  RH WIND       PRES   REMARKS
WATERTOWN      LGT RAIN  49  47  93 NE13      30.14R
FORT DRUM      NOT AVBL
MASSENA        CLOUDY    50  47  89 NE16      30.23R
SARANAC LAKE   LGT RAIN  46  45  96 NE10      30.15S
PLATTSBURGH    LGT RAIN  49  48  97 NE5       30.24R FOG
$$

NYZ001>004-010>016-019>021-011300-
WEST


CITY           SKY/WX    TMP DP  RH WIND       PRES   REMARKS
NIAGARA FALLS  DRIZZLE   46  44  93 N13       30.16R FOG
BUFFALO        DRIZZLE   46  44  93 N7        30.15R FOG
DUNKIRK        CLOUDY    47  46  97 NE5       30.15R FOG
JAMESTOWN      CLOUDY    45  41  87 N6        30.12R
WELLSVILLE     LGT RAIN  45  43  93 NW8       30.10R VSB 1/4
ROCHESTER      DRIZZLE   48  47  96 NE9       30.14R FOG
PENN YAN       CLOUDY    49  47  93 VRB3      30.10R FOG
$$

             KEY
       WCI = WIND CHILL INDEX
       VSB = VISIBILITY
       HX  = HEAT INDEX
$$



USA.gov is the U.S. government's official web portal to all federal, state and local government web resources and services.